Station Historical Data
Daily Summary for August 13, 2017 Units:  English    Metric   Both
Next Day »
Daily Weekly Monthly Yearly Custom
  High: Low: Average:
Temperature: 88.0 °F 68.9 °F 76.6 °F
Dew Point: 52.6 °F 42.0 °F 48.5 °F
Humidity: 51% 21% 39%
Wind Speed: 15.0mph 0.0mph 3.7mph
Wind Gust: 18.0mph - -
Wind- - SSE
Pressure: 29.87 in 29.80 in -
Precipitation: 0.00 in    
Historical Graphs
 
 
Tabular Data for August 13, 2017
Time Temperature Dew Point Pressure Wind Wind Speed Wind Gust Humidity Rainfall Rate (Hourly) solar Conditions
00:02 72.4 °F 50.5 °F 29.86 in East 2.0 mph 8.0 mph 46% 0.00 in 0.00 W/m2
00:07 72.4 °F 50.5 °F 29.85 in East 2.0 mph 9.0 mph 46% 0.00 in 0.00 W/m2
00:12 72.4 °F 50.5 °F 29.85 in East 6.0 mph 14.0 mph 46% 0.00 in 0.00 W/m2
00:17 72.4 °F 50.5 °F 29.86 in Calm   9.0 mph 46% 0.00 in 0.00 W/m2
00:22 72.3 °F 50.4 °F 29.85 in ESE 11.0 mph 11.0 mph 46% 0.00 in 0.00 W/m2
00:25 72.3 °F 50.4 °F 29.85 in ESE 6.0 mph 15.0 mph 46% 0.00 in 0.00 W/m2
00:30 72.3 °F 50.4 °F 29.85 in ESE 6.0 mph 15.0 mph 46% 0.00 in 0.00 W/m2
00:35 72.3 °F 50.4 °F 29.85 in East 6.0 mph 11.0 mph 46% 0.00 in 0.00 W/m2
00:40 72.2 °F 50.3 °F 29.85 in East 11.0 mph 15.0 mph 46% 0.00 in 0.00 W/m2
00:45 72.2 °F 50.3 °F 29.85 in East 5.0 mph 12.0 mph 46% 0.00 in 0.00 W/m2
00:50 72.1 °F 50.2 °F 29.85 in ESE 8.0 mph 14.0 mph 46% 0.00 in 0.00 W/m2
00:55 72.1 °F 50.2 °F 29.85 in ESE 7.0 mph 16.0 mph 46% 0.00 in 0.00 W/m2
01:00 72.0 °F 50.1 °F 29.85 in East 1.0 mph 12.0 mph 46% 0.00 in 0.00 W/m2
01:05 72.0 °F 50.1 °F 29.85 in East 1.0 mph 14.0 mph 46% 0.00 in 0.00 W/m2
01:10 72.0 °F 50.1 °F 29.85 in ESE 1.0 mph 14.0 mph 46% 0.00 in 0.00 W/m2
01:15 71.9 °F 50.0 °F 29.85 in ESE 4.0 mph 12.0 mph 46% 0.00 in 0.00 W/m2
01:20 71.9 °F 50.0 °F 29.85 in ESE 2.0 mph 16.0 mph 46% 0.00 in 0.00 W/m2
01:25 71.9 °F 50.0 °F 29.85 in Calm   14.0 mph 46% 0.00 in 0.00 W/m2
01:30 71.8 °F 49.9 °F 29.85 in East 1.0 mph 14.0 mph 46% 0.00 in 0.00 W/m2
01:35 71.8 °F 49.9 °F 29.85 in Calm   13.0 mph 46% 0.00 in 0.00 W/m2
01:40 71.7 °F 50.4 °F 29.84 in East 7.0 mph 13.0 mph 47% 0.00 in 0.00 W/m2
01:41 71.7 °F 50.4 °F 29.84 in East 11.0 mph 11.0 mph 47% 0.00 in 0.00 W/m2
01:46 71.7 °F 50.4 °F 29.84 in ESE 8.0 mph 12.0 mph 47% 0.00 in 0.00 W/m2
01:51 71.6 °F 50.3 °F 29.84 in East 12.0 mph 12.0 mph 47% 0.00 in 0.00 W/m2
01:56 71.6 °F 49.8 °F 29.84 in ESE 6.0 mph 9.0 mph 46% 0.00 in 0.00 W/m2
02:01 71.6 °F 50.3 °F 29.84 in East 7.0 mph 13.0 mph 47% 0.00 in 0.00 W/m2
02:06 71.6 °F 49.8 °F 29.84 in East 13.0 mph 13.0 mph 46% 0.00 in 0.00 W/m2
02:11 71.6 °F 50.3 °F 29.84 in ESE 5.0 mph 7.0 mph 47% 0.00 in 0.00 W/m2
02:16 71.6 °F 49.8 °F 29.84 in ESE 7.0 mph 13.0 mph 46% 0.00 in 0.00 W/m2
02:21 71.5 °F 49.7 °F 29.84 in East 7.0 mph 11.0 mph 46% 0.00 in 0.00 W/m2
02:26 71.5 °F 49.7 °F 29.83 in Calm   9.0 mph 46% 0.00 in 0.00 W/m2
02:31 71.5 °F 49.7 °F 29.83 in East 15.0 mph 15.0 mph 46% 0.00 in 0.00 W/m2
02:37 71.4 °F 49.6 °F 29.83 in East 15.0 mph 15.0 mph 46% 0.00 in 0.00 W/m2
02:41 71.4 °F 49.6 °F 29.83 in East 8.0 mph 9.0 mph 46% 0.00 in 0.00 W/m2
02:46 71.3 °F 49.5 °F 29.83 in ESE 5.0 mph 9.0 mph 46% 0.00 in 0.00 W/m2
02:52 71.3 °F 49.5 °F 29.83 in East 9.0 mph 13.0 mph 46% 0.00 in 0.00 W/m2
02:57 71.3 °F 49.5 °F 29.83 in Calm   7.0 mph 46% 0.00 in 0.00 W/m2
03:02 71.2 °F 49.4 °F 29.83 in East 5.0 mph 12.0 mph 46% 0.00 in 0.00 W/m2
03:07 71.2 °F 49.4 °F 29.83 in East 6.0 mph 10.0 mph 46% 0.00 in 0.00 W/m2
03:12 71.1 °F 49.3 °F 29.83 in ESE 7.0 mph 16.0 mph 46% 0.00 in 0.00 W/m2
03:17 71.1 °F 49.9 °F 29.83 in ESE 12.0 mph 14.0 mph 47% 0.00 in 0.00 W/m2
03:22 71.0 °F 49.2 °F 29.83 in East 13.0 mph 15.0 mph 46% 0.00 in 0.00 W/m2
03:27 71.0 °F 49.2 °F 29.83 in Calm   16.0 mph 46% 0.00 in 0.00 W/m2
03:32 71.0 °F 49.2 °F 29.82 in Calm   9.0 mph 46% 0.00 in 0.00 W/m2
03:37 70.9 °F 49.1 °F 29.83 in ESE 8.0 mph 13.0 mph 46% 0.00 in 0.00 W/m2
03:42 70.9 °F 49.1 °F 29.83 in ESE 5.0 mph 15.0 mph 46% 0.00 in 0.00 W/m2
03:47 70.9 °F 49.1 °F 29.83 in East 9.0 mph 13.0 mph 46% 0.00 in 0.00 W/m2
03:52 70.8 °F 49.0 °F 29.83 in East 7.0 mph 13.0 mph 46% 0.00 in 0.00 W/m2
03:57 70.8 °F 49.0 °F 29.83 in ESE 4.0 mph 13.0 mph 46% 0.00 in 0.00 W/m2
04:02 70.8 °F 49.0 °F 29.83 in ESE 5.0 mph 12.0 mph 46% 0.00 in 0.00 W/m2
04:07 70.7 °F 48.9 °F 29.83 in East 5.0 mph 8.0 mph 46% 0.00 in 0.00 W/m2
04:12 70.7 °F 48.9 °F 29.83 in SE 9.0 mph 13.0 mph 46% 0.00 in 0.00 W/m2
04:17 70.7 °F 48.9 °F 29.82 in ESE 14.0 mph 14.0 mph 46% 0.00 in 0.00 W/m2
04:22 70.6 °F 48.8 °F 29.82 in ESE 5.0 mph 14.0 mph 46% 0.00 in 0.00 W/m2
04:27 70.6 °F 48.8 °F 29.83 in East 14.0 mph 16.0 mph 46% 0.00 in 0.00 W/m2
04:32 70.5 °F 48.8 °F 29.83 in ESE 11.0 mph 13.0 mph 46% 0.00 in 0.00 W/m2
04:37 70.5 °F 48.8 °F 29.83 in Calm   8.0 mph 46% 0.00 in 0.00 W/m2
04:42 70.5 °F 48.2 °F 29.83 in East 6.0 mph 15.0 mph 45% 0.00 in 0.00 W/m2
04:47 70.4 °F 48.1 °F 29.83 in ESE 5.0 mph 13.0 mph 45% 0.00 in 0.00 W/m2
04:52 70.4 °F 48.1 °F 29.83 in East 2.0 mph 14.0 mph 45% 0.00 in 0.00 W/m2
04:57 70.4 °F 48.7 °F 29.83 in ESE 1.0 mph 14.0 mph 46% 0.00 in 0.00 W/m2
05:02 70.3 °F 48.0 °F 29.83 in East 9.0 mph 14.0 mph 45% 0.00 in 0.00 W/m2
05:07 70.2 °F 47.9 °F 29.83 in Calm   12.0 mph 45% 0.00 in 0.00 W/m2
05:12 70.1 °F 47.8 °F 29.83 in ESE 13.0 mph 18.0 mph 45% 0.00 in 0.00 W/m2
05:17 70.1 °F 47.8 °F 29.83 in Calm   15.0 mph 45% 0.00 in 0.00 W/m2
05:22 70.0 °F 47.7 °F 29.83 in Calm   13.0 mph 45% 0.00 in 0.00 W/m2
05:27 70.0 °F 47.7 °F 29.83 in ESE 5.0 mph 13.0 mph 45% 0.00 in 0.00 W/m2
05:32 69.9 °F 47.6 °F 29.83 in Calm   13.0 mph 45% 0.00 in 0.00 W/m2
05:37 69.9 °F 47.6 °F 29.83 in East 9.0 mph 13.0 mph 45% 0.00 in 0.00 W/m2
05:42 69.8 °F 47.5 °F 29.83 in ESE 5.0 mph 14.0 mph 45% 0.00 in 0.00 W/m2
05:47 69.7 °F 47.4 °F 29.83 in ESE 11.0 mph 13.0 mph 45% 0.00 in 0.00 W/m2
05:52 69.7 °F 47.4 °F 29.83 in East 11.0 mph 13.0 mph 45% 0.00 in 0.00 W/m2
05:57 69.6 °F 47.3 °F 29.83 in ENE 5.0 mph 14.0 mph 45% 0.00 in 0.00 W/m2
06:02 69.6 °F 47.3 °F 29.84 in East 2.0 mph 13.0 mph 45% 0.00 in 0.00 W/m2
06:07 69.6 °F 47.3 °F 29.84 in Calm   13.0 mph 45% 0.00 in 0.00 W/m2
06:12 69.5 °F 47.2 °F 29.84 in ESE 6.0 mph 13.0 mph 45% 0.00 in 0.00 W/m2
06:17 69.5 °F 46.7 °F 29.84 in ESE 1.0 mph 14.0 mph 44% 0.00 in 5.00 W/m2
06:22 69.5 °F 46.7 °F 29.84 in Calm   1.0 mph 44% 0.00 in 9.00 W/m2
06:27 69.5 °F 46.7 °F 29.84 in ESE 1.0 mph 13.0 mph 44% 0.00 in 12.00 W/m2
06:32 69.4 °F 46.6 °F 29.84 in ESE 1.0 mph 2.0 mph 44% 0.00 in 14.00 W/m2
06:37 69.4 °F 46.6 °F 29.84 in Calm   2.0 mph 44% 0.00 in 18.00 W/m2
06:42 69.4 °F 46.6 °F 29.84 in ESE 11.0 mph 12.0 mph 44% 0.00 in 21.00 W/m2
06:47 69.4 °F 46.0 °F 29.84 in East 1.0 mph 3.0 mph 43% 0.00 in 28.00 W/m2
06:52 69.3 °F 46.5 °F 29.84 in East 1.0 mph 14.0 mph 44% 0.00 in 39.00 W/m2
06:57 69.3 °F 46.5 °F 29.85 in Calm   2.0 mph 44% 0.00 in 49.00 W/m2
07:03 69.2 °F 46.4 °F 29.85 in Calm   12.0 mph 44% 0.00 in 63.00 W/m2
07:08 69.1 °F 46.3 °F 29.85 in Calm   2.0 mph 44% 0.00 in 76.00 W/m2
07:13 69.1 °F 46.3 °F 29.85 in East 1.0 mph 14.0 mph 44% 0.00 in 91.00 W/m2
07:18 69.0 °F 46.8 °F 29.85 in ESE 1.0 mph 4.0 mph 45% 0.00 in 105.00 W/m2
07:23 69.0 °F 46.8 °F 29.85 in Calm   12.0 mph 45% 0.00 in 127.00 W/m2
07:28 68.9 °F 46.7 °F 29.85 in East 5.0 mph 13.0 mph 45% 0.00 in 146.00 W/m2
07:33 68.9 °F 46.7 °F 29.85 in Calm   2.0 mph 45% 0.00 in 162.00 W/m2
07:38 68.9 °F 46.7 °F 29.85 in East 1.0 mph 4.0 mph 45% 0.00 in 181.00 W/m2
07:43 68.9 °F 46.7 °F 29.85 in East 1.0 mph 4.0 mph 45% 0.00 in 202.00 W/m2
07:48 68.9 °F 46.7 °F 29.85 in Calm   4.0 mph 45% 0.00 in 221.00 W/m2
07:53 69.0 °F 46.8 °F 29.85 in ESE 1.0 mph 5.0 mph 45% 0.00 in 237.00 W/m2
07:58 69.1 °F 46.9 °F 29.85 in ESE 1.0 mph 4.0 mph 45% 0.00 in 257.00 W/m2
08:03 69.2 °F 47.0 °F 29.85 in East 4.0 mph 12.0 mph 45% 0.00 in 278.00 W/m2
08:08 69.3 °F 47.1 °F 29.85 in Calm   2.0 mph 45% 0.00 in 287.00 W/m2
08:13 69.5 °F 47.2 °F 29.85 in SE 12.0 mph 13.0 mph 45% 0.00 in 316.00 W/m2
08:18 69.6 °F 47.3 °F 29.86 in Calm   14.0 mph 45% 0.00 in 330.00 W/m2
08:23 69.8 °F 47.5 °F 29.86 in ESE 2.0 mph 12.0 mph 45% 0.00 in 348.00 W/m2
08:28 70.0 °F 48.3 °F 29.86 in ESE 8.0 mph 14.0 mph 46% 0.00 in 364.00 W/m2
08:33 70.1 °F 47.8 °F 29.86 in Calm   13.0 mph 45% 0.00 in 380.00 W/m2
08:38 70.3 °F 48.6 °F 29.86 in Calm   1.0 mph 46% 0.00 in 399.00 W/m2
08:43 70.5 °F 48.2 °F 29.86 in Calm   12.0 mph 45% 0.00 in 410.00 W/m2
08:48 70.7 °F 47.7 °F 29.86 in Calm   1.0 mph 44% 0.00 in 431.00 W/m2
08:53 70.9 °F 48.5 °F 29.86 in Calm   1.0 mph 45% 0.00 in 443.00 W/m2
08:58 71.3 °F 49.5 °F 29.86 in Calm   1.0 mph 46% 0.00 in 461.00 W/m2
09:03 71.6 °F 49.8 °F 29.86 in Calm   2.0 mph 46% 0.00 in 475.00 W/m2
09:08 71.9 °F 48.8 °F 29.86 in Calm   1.0 mph 44% 0.00 in 490.00 W/m2
09:13 72.2 °F 49.7 °F 29.86 in Calm   1.0 mph 45% 0.00 in 508.00 W/m2
09:18 72.6 °F 50.1 °F 29.86 in Calm   1.0 mph 45% 0.00 in 522.00 W/m2
09:23 72.8 °F 50.2 °F 29.86 in SE 2.0 mph 2.0 mph 45% 0.00 in 538.00 W/m2
09:28 73.1 °F 49.9 °F 29.86 in Calm   1.0 mph 44% 0.00 in 548.00 W/m2
09:33 73.4 °F 50.2 °F 29.86 in Calm   2.0 mph 44% 0.00 in 564.00 W/m2
09:38 73.7 °F 49.8 °F 29.86 in ESE 1.0 mph 2.0 mph 43% 0.00 in 580.00 W/m2
09:43 74.1 °F 48.9 °F 29.86 in Calm   2.0 mph 41% 0.00 in 594.00 W/m2
09:44 74.2 °F 49.0 °F 29.86 in Calm   2.0 mph 41% 0.00 in 598.00 W/m2
09:49 74.6 °F 49.4 °F 29.86 in Calm   1.0 mph 41% 0.00 in 610.00 W/m2
09:54 75.0 °F 48.4 °F 29.86 in SE 2.0 mph 2.0 mph 39% 0.00 in 626.00 W/m2
09:59 75.4 °F 48.8 °F 29.87 in SE 1.0 mph 1.0 mph 39% 0.00 in 640.00 W/m2
10:04 75.8 °F 50.5 °F 29.87 in Calm     41% 0.00 in 650.00 W/m2
10:09 76.1 °F 51.4 °F 29.87 in South 1.0 mph 4.0 mph 42% 0.00 in 663.00 W/m2
10:14 76.5 °F 51.7 °F 29.87 in South 4.0 mph 4.0 mph 42% 0.00 in 677.00 W/m2
10:19 76.8 °F 49.3 °F 29.87 in SSE 1.0 mph 4.0 mph 38% 0.00 in 687.00 W/m2
10:24 77.1 °F 49.6 °F 29.86 in South 1.0 mph 5.0 mph 38% 0.00 in 703.00 W/m2
10:29 77.5 °F 49.9 °F 29.86 in Calm   2.0 mph 38% 0.00 in 710.00 W/m2
10:34 78.1 °F 50.5 °F 29.86 in Calm   2.0 mph 38% 0.00 in 724.00 W/m2
10:39 78.5 °F 50.1 °F 29.86 in SSW 1.0 mph 11.0 mph 37% 0.00 in 731.00 W/m2
10:44 78.9 °F 51.2 °F 29.86 in South 9.0 mph 13.0 mph 38% 0.00 in 745.00 W/m2
10:49 79.2 °F 47.7 °F 29.87 in South 8.0 mph 11.0 mph 33% 0.00 in 756.00 W/m2
10:54 79.6 °F 48.8 °F 29.87 in South 5.0 mph 14.0 mph 34% 0.00 in 766.00 W/m2
10:59 79.8 °F 47.3 °F 29.87 in Calm   12.0 mph 32% 0.00 in 775.00 W/m2
11:01 80.0 °F 48.3 °F 29.87 in SW 1.0 mph 1.0 mph 33% 0.00 in 775.00 W/m2
11:06 80.4 °F 48.7 °F 29.87 in South 6.0 mph 9.0 mph 33% 0.00 in 788.00 W/m2
11:11 80.8 °F 47.4 °F 29.87 in Calm   1.0 mph 31% 0.00 in 796.00 W/m2
11:16 81.2 °F 49.4 °F 29.87 in South 3.0 mph 7.0 mph 33% 0.00 in 812.00 W/m2
11:21 81.6 °F 48.9 °F 29.86 in Calm     32% 0.00 in 772.00 W/m2
11:26 82.0 °F 47.5 °F 29.86 in South 9.0 mph 9.0 mph 30% 0.00 in 803.00 W/m2
11:31 82.3 °F 47.8 °F 29.86 in SW 8.0 mph 12.0 mph 30% 0.00 in 826.00 W/m2
11:36 82.7 °F 46.3 °F 29.86 in South 1.0 mph 1.0 mph 28% 0.00 in 823.00 W/m2
11:41 83.1 °F 46.7 °F 29.86 in SW 13.0 mph 17.0 mph 28% 0.00 in 844.00 W/m2
11:46 83.5 °F 47.0 °F 29.86 in SW 5.0 mph 10.0 mph 28% 0.00 in 837.00 W/m2
11:51 83.8 °F 46.3 °F 29.86 in SSW 5.0 mph 8.0 mph 27% 0.00 in 851.00 W/m2
11:56 84.2 °F 45.6 °F 29.86 in SSW 9.0 mph 9.0 mph 26% 0.00 in 860.00 W/m2
12:01 84.6 °F 46.0 °F 29.86 in Calm   12.0 mph 26% 0.00 in 860.00 W/m2
12:06 84.9 °F 47.2 °F 29.86 in SSW 10.0 mph 11.0 mph 27% 0.00 in 865.00 W/m2
12:11 85.4 °F 46.7 °F 29.86 in South 4.0 mph 9.0 mph 26% 0.00 in 867.00 W/m2
12:16 85.9 °F 46.0 °F 29.86 in SW 8.0 mph 10.0 mph 25% 0.00 in 879.00 W/m2
12:21 86.4 °F 45.4 °F 29.86 in Calm   5.0 mph 24% 0.00 in 875.00 W/m2
12:26 86.9 °F 46.9 °F 29.86 in SW 9.0 mph 9.0 mph 25% 0.00 in 884.00 W/m2
12:31 87.4 °F 46.2 °F 29.86 in South 1.0 mph 1.0 mph 24% 0.00 in 888.00 W/m2
12:36 87.8 °F 47.6 °F 29.86 in South 7.0 mph 9.0 mph 25% 0.00 in 891.00 W/m2
12:38 87.9 °F 46.6 °F 29.86 in SW 1.0 mph 9.0 mph 24% 0.00 in 895.00 W/m2
12:43 87.9 °F 46.6 °F 29.86 in SSE 6.0 mph 13.0 mph 24% 0.00 in 858.00 W/m2
12:48 87.9 °F 47.7 °F 29.86 in WSW 7.0 mph 14.0 mph 25% 0.00 in 904.00 W/m2
12:53 87.8 °F 45.4 °F 29.86 in Calm   2.0 mph 23% 0.00 in 911.00 W/m2
12:58 87.9 °F 44.3 °F 29.86 in South 11.0 mph 14.0 mph 22% 0.00 in 925.00 W/m2
13:03 87.9 °F 46.6 °F 29.86 in SSW 8.0 mph 11.0 mph 24% 0.00 in 939.00 W/m2
13:07 87.8 °F 46.5 °F 29.87 in SW 10.0 mph 14.0 mph 24% 0.00 in 814.00 W/m2
13:12 87.7 °F 45.3 °F 29.86 in SSW 4.0 mph 15.0 mph 23% 0.00 in 923.00 W/m2
13:17 87.8 °F 45.4 °F 29.86 in SSW 7.0 mph 9.0 mph 23% 0.00 in 916.00 W/m2
13:22 88.0 °F 44.4 °F 29.87 in WSW 13.0 mph 16.0 mph 22% 0.00 in 911.00 W/m2
13:27 87.7 °F 45.3 °F 29.87 in SSW 14.0 mph 15.0 mph 23% 0.00 in 895.00 W/m2
13:32 87.7 °F 44.2 °F 29.86 in WSW 1.0 mph 10.0 mph 22% 0.00 in 904.00 W/m2
13:37 87.6 °F 45.3 °F 29.86 in SW 3.0 mph 14.0 mph 23% 0.00 in 900.00 W/m2
13:42 87.3 °F 45.0 °F 29.86 in Calm   10.0 mph 23% 0.00 in 911.00 W/m2
13:48 87.6 °F 44.1 °F 29.86 in SSE 2.0 mph 15.0 mph 22% 0.00 in 911.00 W/m2
13:52 87.9 °F 43.1 °F 29.86 in Calm   12.0 mph 21% 0.00 in 896.00 W/m2
13:58 88.0 °F 43.2 °F 29.86 in WSW 7.0 mph 11.0 mph 21% 0.00 in 907.00 W/m2
14:03 87.6 °F 44.1 °F 29.86 in Calm   10.0 mph 22% 0.00 in 701.00 W/m2
14:08 86.7 °F 43.3 °F 29.86 in SSW 4.0 mph 13.0 mph 22% 0.00 in 889.00 W/m2
14:13 86.5 °F 42.0 °F 29.86 in Calm   12.0 mph 21% 0.00 in 870.00 W/m2
14:18 86.3 °F 43.0 °F 29.86 in Calm   11.0 mph 22% 0.00 in 861.00 W/m2
14:23 86.2 °F 42.9 °F 29.85 in Calm   13.0 mph 22% 0.00 in 853.00 W/m2
14:28 86.3 °F 43.0 °F 29.85 in SW 4.0 mph 9.0 mph 22% 0.00 in 844.00 W/m2
14:33 86.5 °F 43.2 °F 29.85 in Calm   10.0 mph 22% 0.00 in 833.00 W/m2
14:38 86.9 °F 43.5 °F 29.85 in Calm   9.0 mph 22% 0.00 in 828.00 W/m2
14:43 87.3 °F 43.8 °F 29.85 in Calm   12.0 mph 22% 0.00 in 821.00 W/m2
14:48 87.6 °F 44.1 °F 29.85 in SSW 9.0 mph 14.0 mph 22% 0.00 in 812.00 W/m2
14:53 87.8 °F 44.3 °F 29.85 in SW 10.0 mph 16.0 mph 22% 0.00 in 800.00 W/m2
14:58 87.9 °F 44.3 °F 29.84 in South 12.0 mph 12.0 mph 22% 0.00 in 795.00 W/m2
15:03 88.0 °F 44.4 °F 29.84 in Calm   13.0 mph 22% 0.00 in 789.00 W/m2
15:08 87.9 °F 44.3 °F 29.84 in Calm   1.0 mph 22% 0.00 in 770.00 W/m2
15:13 87.5 °F 44.0 °F 29.84 in SW 12.0 mph 13.0 mph 22% 0.00 in 766.00 W/m2
15:18 87.1 °F 43.7 °F 29.84 in SSW 3.0 mph 13.0 mph 22% 0.00 in 756.00 W/m2
15:23 86.8 °F 44.6 °F 29.84 in SSW 9.0 mph 13.0 mph 23% 0.00 in 747.00 W/m2
15:28 86.6 °F 45.5 °F 29.84 in Calm   11.0 mph 24% 0.00 in 738.00 W/m2
15:33 86.4 °F 44.3 °F 29.84 in Calm   11.0 mph 23% 0.00 in 729.00 W/m2
15:38 86.1 °F 44.0 °F 29.84 in Calm   9.0 mph 23% 0.00 in 712.00 W/m2
15:43 85.8 °F 43.8 °F 29.84 in SSW 7.0 mph 13.0 mph 23% 0.00 in 700.00 W/m2
15:48 85.6 °F 44.7 °F 29.84 in SW 6.0 mph 11.0 mph 24% 0.00 in 686.00 W/m2
15:53 85.4 °F 44.5 °F 29.84 in Calm   1.0 mph 24% 0.00 in 686.00 W/m2
15:58 85.2 °F 44.4 °F 29.84 in WSW 10.0 mph 13.0 mph 24% 0.00 in 670.00 W/m2
16:03 85.2 °F 44.4 °F 29.83 in SW 1.0 mph 10.0 mph 24% 0.00 in 659.00 W/m2
16:08 85.2 °F 45.5 °F 29.83 in Calm   1.0 mph 25% 0.00 in 642.00 W/m2
16:13 85.1 °F 45.4 °F 29.83 in SSE 11.0 mph 16.0 mph 25% 0.00 in 633.00 W/m2
16:18 85.1 °F 44.3 °F 29.83 in Calm   1.0 mph 24% 0.00 in 619.00 W/m2
16:23 85.0 °F 45.3 °F 29.83 in Calm   8.0 mph 25% 0.00 in 605.00 W/m2
16:28 85.0 °F 46.3 °F 29.83 in South 12.0 mph 13.0 mph 26% 0.00 in 591.00 W/m2
16:33 85.0 °F 45.3 °F 29.83 in Calm   8.0 mph 25% 0.00 in 577.00 W/m2
16:38 84.9 °F 45.2 °F 29.83 in Calm   13.0 mph 25% 0.00 in 563.00 W/m2
16:43 84.9 °F 45.2 °F 29.83 in South 10.0 mph 12.0 mph 25% 0.00 in 550.00 W/m2
16:48 84.8 °F 46.1 °F 29.82 in Calm   1.0 mph 26% 0.00 in 517.00 W/m2
16:53 84.8 °F 47.1 °F 29.82 in SSE 2.0 mph 9.0 mph 27% 0.00 in 520.00 W/m2
16:58 84.8 °F 46.1 °F 29.82 in SSW 8.0 mph 12.0 mph 26% 0.00 in 506.00 W/m2
17:03 84.7 °F 46.1 °F 29.82 in Calm   12.0 mph 26% 0.00 in 485.00 W/m2
17:08 84.6 °F 47.0 °F 29.82 in South 6.0 mph 11.0 mph 27% 0.00 in 476.00 W/m2
17:14 84.5 °F 46.9 °F 29.82 in SW 8.0 mph 12.0 mph 27% 0.00 in 462.00 W/m2
17:19 84.4 °F 46.8 °F 29.81 in SW 5.0 mph 11.0 mph 27% 0.00 in 443.00 W/m2
17:24 84.2 °F 46.6 °F 29.81 in Calm   11.0 mph 27% 0.00 in 429.00 W/m2
17:29 84.1 °F 46.5 °F 29.81 in SW 9.0 mph 12.0 mph 27% 0.00 in 406.00 W/m2
17:34 84.0 °F 46.5 °F 29.81 in Calm   2.0 mph 27% 0.00 in 394.00 W/m2
17:39 83.9 °F 47.3 °F 29.81 in South 4.0 mph 8.0 mph 28% 0.00 in 378.00 W/m2
17:44 83.8 °F 47.2 °F 29.81 in Calm   9.0 mph 28% 0.00 in 362.00 W/m2
17:49 83.7 °F 47.2 °F 29.81 in SSE 8.0 mph 16.0 mph 28% 0.00 in 348.00 W/m2
17:54 83.6 °F 47.1 °F 29.81 in SSW 1.0 mph 10.0 mph 28% 0.00 in 329.00 W/m2
17:59 83.5 °F 47.0 °F 29.81 in SSW 4.0 mph 11.0 mph 28% 0.00 in 311.00 W/m2
18:04 83.4 °F 47.8 °F 29.81 in Calm   2.0 mph 29% 0.00 in 299.00 W/m2
18:09 83.2 °F 48.6 °F 29.81 in Calm   1.0 mph 30% 0.00 in 285.00 W/m2
18:14 83.1 °F 48.5 °F 29.81 in SW 1.0 mph 2.0 mph 30% 0.00 in 267.00 W/m2
18:19 82.9 °F 49.2 °F 29.81 in SSW 1.0 mph 1.0 mph 31% 0.00 in 251.00 W/m2
18:24 82.7 °F 49.0 °F 29.80 in Calm   1.0 mph 31% 0.00 in 230.00 W/m2
18:29 82.6 °F 50.6 °F 29.81 in Calm     33% 0.00 in 218.00 W/m2
18:34 82.3 °F 50.3 °F 29.81 in Calm   1.0 mph 33% 0.00 in 202.00 W/m2
18:39 82.1 °F 51.0 °F 29.81 in Calm   1.0 mph 34% 0.00 in 186.00 W/m2
18:44 81.9 °F 51.6 °F 29.81 in Calm     35% 0.00 in 171.00 W/m2
18:49 81.6 °F 51.3 °F 29.81 in Calm   1.0 mph 35% 0.00 in 151.00 W/m2
18:54 81.4 °F 51.9 °F 29.81 in Calm     36% 0.00 in 65.00 W/m2
18:59 81.1 °F 52.4 °F 29.81 in Calm   1.0 mph 37% 0.00 in 114.00 W/m2
19:04 80.7 °F 51.3 °F 29.81 in Calm   1.0 mph 36% 0.00 in 97.00 W/m2
19:09 80.5 °F 51.9 °F 29.81 in Calm   1.0 mph 37% 0.00 in 81.00 W/m2
19:14 80.3 °F 51.7 °F 29.81 in Calm   1.0 mph 37% 0.00 in 37.00 W/m2
19:19 80.1 °F 52.2 °F 29.81 in Calm   1.0 mph 38% 0.00 in 53.00 W/m2
19:24 79.9 °F 52.0 °F 29.81 in Calm   1.0 mph 38% 0.00 in 32.00 W/m2
19:29 79.6 °F 52.5 °F 29.81 in Calm   1.0 mph 39% 0.00 in 28.00 W/m2
19:34 79.2 °F 52.1 °F 29.81 in Calm   1.0 mph 39% 0.00 in 19.00 W/m2
19:39 79.0 °F 52.6 °F 29.81 in Calm   1.0 mph 40% 0.00 in 14.00 W/m2
19:44 78.6 °F 52.3 °F 29.81 in SSW 1.0 mph 1.0 mph 40% 0.00 in 12.00 W/m2
19:49 78.1 °F 52.5 °F 29.81 in Calm   1.0 mph 41% 0.00 in 9.00 W/m2
19:54 77.7 °F 52.2 °F 29.81 in Calm   1.0 mph 41% 0.00 in 5.00 W/m2
19:59 77.3 °F 52.5 °F 29.81 in Calm     42% 0.00 in 0.00 W/m2
20:04 76.8 °F 52.0 °F 29.81 in Calm   1.0 mph 42% 0.00 in 0.00 W/m2
20:09 76.4 °F 52.3 °F 29.81 in Calm   1.0 mph 43% 0.00 in 0.00 W/m2
20:14 76.1 °F 52.0 °F 29.81 in Calm   1.0 mph 43% 0.00 in 0.00 W/m2
20:19 75.6 °F 52.2 °F 29.81 in Calm   1.0 mph 44% 0.00 in 0.00 W/m2
20:24 75.2 °F 51.8 °F 29.81 in Calm   1.0 mph 44% 0.00 in 0.00 W/m2
20:29 74.9 °F 51.5 °F 29.81 in Calm   1.0 mph 44% 0.00 in 0.00 W/m2
20:34 74.7 °F 51.4 °F 29.81 in Calm     44% 0.00 in 0.00 W/m2
20:39 74.5 °F 51.2 °F 29.81 in Calm   1.0 mph 44% 0.00 in 0.00 W/m2
20:44 74.4 °F 51.1 °F 29.81 in Calm   1.0 mph 44% 0.00 in 0.00 W/m2
20:49 74.2 °F 51.5 °F 29.81 in Calm   1.0 mph 45% 0.00 in 0.00 W/m2
20:54 74.1 °F 51.4 °F 29.81 in Calm   1.0 mph 45% 0.00 in 0.00 W/m2
21:00 73.9 °F 51.8 °F 29.81 in Calm   1.0 mph 46% 0.00 in 0.00 W/m2
21:04 73.8 °F 51.8 °F 29.81 in Calm   1.0 mph 46% 0.00 in 0.00 W/m2
21:09 73.6 °F 51.6 °F 29.81 in SSE 5.0 mph 11.0 mph 46% 0.00 in 0.00 W/m2
21:15 73.4 °F 52.0 °F 29.81 in SSE 7.0 mph 9.0 mph 47% 0.00 in 0.00 W/m2
21:20 73.3 °F 51.9 °F 29.81 in SSE 6.0 mph 11.0 mph 47% 0.00 in 0.00 W/m2
21:25 73.1 °F 52.3 °F 29.81 in SSE 5.0 mph 9.0 mph 48% 0.00 in 0.00 W/m2
21:30 73.0 °F 52.2 °F 29.81 in SSE 4.0 mph 11.0 mph 48% 0.00 in 0.00 W/m2
21:35 72.8 °F 52.0 °F 29.81 in SSE 4.0 mph 11.0 mph 48% 0.00 in 0.00 W/m2
21:40 72.7 °F 51.9 °F 29.82 in SSE 4.0 mph 11.0 mph 48% 0.00 in 0.00 W/m2
21:45 72.6 °F 51.8 °F 29.81 in SSE 6.0 mph 11.0 mph 48% 0.00 in 0.00 W/m2
21:50 72.5 °F 51.7 °F 29.81 in SSE 1.0 mph 9.0 mph 48% 0.00 in 0.00 W/m2
21:55 72.4 °F 51.6 °F 29.82 in Calm   1.0 mph 48% 0.00 in 0.00 W/m2
22:00 72.2 °F 52.0 °F 29.81 in SSE 6.0 mph 12.0 mph 49% 0.00 in 0.00 W/m2
22:05 72.2 °F 52.0 °F 29.81 in Calm   1.0 mph 49% 0.00 in 0.00 W/m2
22:10 72.1 °F 51.9 °F 29.81 in Calm   1.0 mph 49% 0.00 in 0.00 W/m2
22:15 71.9 °F 51.7 °F 29.82 in Calm   1.0 mph 49% 0.00 in 0.00 W/m2
22:20 71.9 °F 51.7 °F 29.82 in SSE 1.0 mph 1.0 mph 49% 0.00 in 0.00 W/m2
22:25 71.7 °F 51.5 °F 29.82 in SSE 8.0 mph 9.0 mph 49% 0.00 in 0.00 W/m2
22:30 71.6 °F 51.5 °F 29.81 in SSE 5.0 mph 11.0 mph 49% 0.00 in 0.00 W/m2
22:35 71.5 °F 51.4 °F 29.81 in SSE 6.0 mph 11.0 mph 49% 0.00 in 0.00 W/m2
22:40 71.4 °F 51.3 °F 29.81 in SSE 4.0 mph 11.0 mph 49% 0.00 in 0.00 W/m2
22:42 71.4 °F 51.3 °F 29.81 in SSE 8.0 mph 12.0 mph 49% 0.00 in 0.00 W/m2
22:47 71.3 °F 51.2 °F 29.81 in Calm   1.0 mph 49% 0.00 in 0.00 W/m2
22:52 71.3 °F 51.2 °F 29.81 in Calm   1.0 mph 49% 0.00 in 0.00 W/m2
22:57 71.2 °F 51.6 °F 29.81 in SSE 4.0 mph 11.0 mph 50% 0.00 in 0.00 W/m2
23:02 71.1 °F 51.5 °F 29.81 in SSE 7.0 mph 8.0 mph 50% 0.00 in 0.00 W/m2
23:07 71.1 °F 51.5 °F 29.81 in SSE 6.0 mph 10.0 mph 50% 0.00 in 0.00 W/m2
23:12 71.0 °F 51.5 °F 29.81 in SE 6.0 mph 8.0 mph 50% 0.00 in 0.00 W/m2
23:17 70.9 °F 51.3 °F 29.81 in SE 5.0 mph 11.0 mph 50% 0.00 in 0.00 W/m2
23:22 70.8 °F 51.3 °F 29.81 in SE 8.0 mph 9.0 mph 50% 0.00 in 0.00 W/m2
23:27 70.7 °F 51.2 °F 29.81 in SE 12.0 mph 12.0 mph 50% 0.00 in 0.00 W/m2
23:32 70.6 °F 51.1 °F 29.81 in SE 5.0 mph 10.0 mph 50% 0.00 in 0.00 W/m2
23:37 70.5 °F 51.5 °F 29.80 in SE 11.0 mph 13.0 mph 51% 0.00 in 0.00 W/m2
23:42 70.4 °F 51.4 °F 29.80 in SE 5.0 mph 11.0 mph 51% 0.00 in 0.00 W/m2
23:47 70.2 °F 51.2 °F 29.80 in SE 1.0 mph 1.0 mph 51% 0.00 in 0.00 W/m2
23:52 70.1 °F 50.6 °F 29.80 in SE 9.0 mph 9.0 mph 50% 0.00 in 0.00 W/m2
23:57 70.0 °F 50.5 °F 29.80 in SE 7.0 mph 12.0 mph 50% 0.00 in 0.00 W/m2
Foresthill Weather
 WU-history PHP script courtesy of   Juneau County Weather.
powered by Cumulus v1.9.3 (1059)
Ambient Weather VWS v14.00
Top Contact Website Map Copyright © 2007 - 2018 Foresthillweather.com Never base important decisions on this or any weather information obtained from the Internet